www.pogodaiklimat.ru

Погода и климат >> Архив погоды >> Украина >> Маневичи


ПОГОДА в Маневичах

  • Прогноз погоды в Маневичах
  • Монитор погоды в Маневичах

АРХИВ ПОГОДЫ в Маневичах

Время (UTC), дата Ветер
(напр.,м/с)
 
Видим.   Явления Облачность Т
(С)
Тd
(С)
f
(%)
Тe
(С)
Тes
(С)
Комфортность P
(гПа)
Po
(гПа)
Тmin
(С)
Tmax
(С)
R
(мм)
R24
(мм)
S
(см)
03 13.09 штиль 0 20 км 8/0
[Ci fib]
+11.5 +9.1 85 +11 +11 1027.1 1002.6
06 13.09 СЗ 2 20 км 3/0
[Ci fib]
+13.2 +9.9 80 +12 +14 1027.9 1003.5 +10.5
09 13.09 З 3 20 км 3/1 1000 м
[Cu hum Cc]
+21.0 +10.8 52 +23 +29 комфорт 1026.6 1002.9
12 13.09 З 3 20 км 6/6 600 м
[Cu hum]
+22.9 +8.2 39 +24 +27 комфорт 1024.7 1001.2
15 13.09 З 2 20 км 5/3 600 м
[Sc diur, vesp Ac und]
+22.1 +10.0 46 +24 +24 комфорт 1023.4 999.9
18 13.09 ЮЗ 1 20 км 9/0
[Ac und]
+20.0 +11.5 58 +23 +23 комфорт 1023.3 999.6 +24.0
21 13.09 З 2 20 км 3/0
[Ac trans Ci fib]
+18.0 +11.6 66 +19 +19 1023.3 999.4
00 14.09 С 5 20 км 10/10 600 м
[Sc]
+16.2 +12.0 76 +15 +15 1024.4 1000.4
03 14.09 СЗ 2 20 км {ливн. осадки} 8/0
[Ci fib]
+12.0 +10.0 88 +11 +11 1026.4 1002.0
06 14.09 СЗ 3 20 км {ливн. осадки} 3/1 600 м
[Sc Ci fib]
+11.7 +9.7 88 +10 +11 1028.1 1003.6 +10.2 0.3
09 14.09 З 3 20 км 8/8 600 м
[Cu med, cong]
+16.4 +6.4 52 +16 +17 1028.2 1004.1
12 14.09 СЗ 4 20 км 8/6 600 м
[Cu med, cong Ci fib]
+18.2 +4.9 41 +18 +20 1027.7 1003.7
15 14.09 СЗ 4 20 км 3/3 1000 м
[Sc diur, vesp]
+18.2 +4.9 41 +18 +19 1026.8 1002.8
18 14.09 штиль 0 20 км 1/0
[Ci fib]
+13.2 +5.0 58 +13 +13 1027.9 1003.5 +19.5
21 14.09 З 1 20 км 1/0
[Ci fib]
+9.8 +4.4 69 +10 +10 1028.8 1004.1
00 15.09 З 2 20 км 8/0
[Cs]
+8.6 +4.5 75 +7 +7 1028.2 1003.4
03 15.09 штиль 0 20 км 3/0
[Ac lent Ci fib]
+7.1 +4.1 81 +6 +6 1027.3 1002.4
06 15.09 ЮЗ 2 20 км 3/0
[Ci fib]
+9.6 +5.4 75 +8 +10 1026.8 1002.1 +5.3
12 15.09 ЮЗ 5 20 км 8/0
[Ci fib]
+19.3 +4.0 36 +19 +23 1020.9 997.2
15 15.09 ЮЗ 4 20 км 9/0
[Ci fib]
+18.8 +3.0 35 +19 +19 1018.0 994.3
18 15.09 ЮЗ 3 20 км 6/0
[Ci fib]
+16.3 +3.6 43 +16 +16 1016.0 992.1 +20.2
21 15.09 ЮЗ 3 20 км 9/0
[Ac und Ci fib]
+14.8 +5.1 52 +14 +14 1014.8 990.8
00 16.09 ЮЗ 3 20 км 9/0
[Ci fib]
+13.2 +6.6 64 +12 +12 1013.7 989.6
03 16.09 ЮЗ 3 20 км 9/0
[Ac und]
+14.0 +8.9 71 +13 +13 1012.6 988.7
06 16.09 ЮЗ 3 20 км 9/0
[Ac und]
+15.0 +9.6 70 +14 +15 1012.4 988.5 +12.4
09 16.09 З 5 20 км 8/1 1000 м
[Cu hum Ac lent Cc]
+18.8 +7.0 46 +19 +21 1012.1 988.5
12 16.09 З 4 20 км 8/1 1000 м
[Sc diur, vesp Ac trans Ci fib]
+19.8 +4.0 35 +20 +23 1011.3 987.8
15 16.09 СЗ 4 20 км 6/3 600 м
[Sc Ac und]
+17.8 +4.4 41 +18 +18 1011.2 987.6
18 16.09 З 2 20 км 8/1 600 м
[Sc Ac trans]
+14.9 +6.0 55 +15 +15 1011.5 987.6 +21.3
21 16.09 З 3 20 км 9/0
[Ac trans Ci fib]
+12.2 +5.4 63 +11 +11 1011.8 987.7
00 17.09 З 1 20 км 1/0
[Ci fib]
+9.6 +5.2 74 +9 +9 1011.7 987.4
03 17.09 З 2 20 км 3/0
[Ci fib]
+7.8 +4.6 80 +6 +6 1011.6 987.1
06 17.09 З 2 20 км 3/0
[Ci fib]
+8.8 +4.8 76 +7 +9 1011.9 987.5 +6.9
09 17.09 З 5 20 км 3/3 1000 м
[Cu hum Ci fib]
+14.7 +3.0 45 +13 +16 1010.6 986.7
12 17.09 З 4 20 км 8/8 1000 м
[Sc diur, vesp]
+16.9 +2.8 39 +16 +17 1008.6 984.9
18 17.09 З 3 20 км 9/9 600 м
[Sc]
+13.0 +3.8 54 +12 +12 1006.1 982.2 +17.4
00 18.09 ЮЗ 3 10 км в посл. час ливневой дождь 9/9 600 м
[Sc]
+7.5 +6.4 93 +5 +5 1004.5 980.2
06 18.09 З 5 20 км {ливн. осадки} 9/9 600 м
[Sc]
+7.3 +4.3 81 +3 +3 1006.5 982.1 +6.0 3
12 18.09 З 4 20 км в посл. час ливневой дождь 9/9 600 м
[Cb cap]
+9.4 +7.3 87 +6 +7 1010.1 985.8
18 18.09 З 3 10 км в посл. час ливневой дождь 8/8 600 м
[Cb cap]
+8.0 +6.7 91 +5 +5 1015.6 991.1 +10.7 3
00 19.09 З 3 10 км 6/0
[Ac und]
+6.1 +4.7 91 +3 +3 1017.7 992.9
06 19.09 З 3 10 км 9/9 600 м
[Sc]
+6.1 +5.0 93 +3 +3 1019.1 994.3 +4.8
12 19.09 СЗ 3 20 км в посл. час ливневой дождь 9/9 600 м
[Cb calv]
+10.2 +6.4 77 +8 +9 1019.3 994.9
18 19.09 З 1 10 км в посл. час ливневой дождь 3/3 600 м
[Sc diur, vesp]
+7.3 +6.2 93 +6 +6 1021.0 996.3 +14.1 1
00 20.09 З 2 10 км 3/0
[Ac und Ci fib]
+5.2 +4.0 92 +2 +2 1021.7 996.8

 

Местоположение метеостанции Маневичи (Волынская область, Украина): широта 51.28 долгота 25.53 высота над уровнем моря 183 м.

В архиве по умолчанию представлена погода в Маневичах за последнюю неделю. Архивные данные за месяц целиком и за предыдущие месяцы, начиная с января 2011 года, Вы можете получить, выбрав интересующий диапазон дат из раскрывающегося списка и нажав кнопку "Ввод!".


*Определитесь, кто Вы:
робот инопланетянин человек

Внимание! Время в таблицах - всемирное. Для получения местного времени необходимо прибавить поправку, которая равна 2 ч.

Смотрите также архив погоды в соседних городах и на ближайших метеорологических станциях:

Погода в Любешове (Волынская область, Украина) (47 км)
Погода в Ковеле (Волынская область, Украина) (60 км)
Погода в Луцке (Волынская область, Украина) (65 км)
Погода в Свитязи (Волынская область, Украина) (69 км)
Погода в Сарнах (Ровенская область, Украина) (76 км)
Погода в Ровно (Ровенская область, Украина) (88 км)
Погода в Дубно (Ровенская область, Украина) (97 км)
Погода в Владимире-Волынском (Волынская область, Украина) (98 км)
Погода в Пинске (Брестская область, Беларусь) (100 км)
Погода в Дрогичине (Брестская область, Беларусь) (107 км)

Пояснения к столбцам:

Ветер - указаны скорость ветра в м/с - средняя за 10 мин, порывы в срок и между сроками (в фигурных скобках) и направление, откуда дует ветер: С - северный, СВ - северо-восточный, В - восточный, ЮВ - юго-восточный, Ю - южный, ЮЗ - юго-западный, З - западный, СЗ - северо-западный.
Видимость - горизонтальная дальность видимости в метрах или километрах. При видимости от 1 до 10 км при отсутствии осадков обычно наблюдается дымка, при ухудшении видимости до 1 км и менее - туман. В сухую погоду видимость может ухудшаться дымом, пылью или мглою.
Явления - указаны атмосферные явления, наблюдавшиеся в срок или в последний час перед сроком; фигурными скобками обозначены явления, наблюдавшиеся между сроками (за 1-3 часа до срока); квадратными скобками обозначены град или гололедные отложения с указанием их диаметра в мм.
Облачность - указаны через наклонную черту общая и нижняя облачность в баллах и высота нижней границы облаков в метрах; квадратными скобками обозначены формы облаков: Ci - перистые, Cs - перисто-слоистые, Cc - перисто-кучевые, Ac - высококучевые, As - высокослоистые, Sc - слоисто-кучевые, Ns - слоисто-дождевые, Cu - кучевые, Cb - кучево-дождевые. Подробнее классификацию облаков см. в Атласе облаков (PDF).
T - Температура воздуха - температура, измеренная на высоте 2 м над землей.
Td - Температура точки росы - температура, при понижении до которой содержащийся в воздухе водяной пар достигнет насыщения.
f - Относительная влажность воздуха - влажноcть воздуха, измеренная на высоте 2 м над землей.
Te - Эффективная температура - температура, которую ощущает одетый по сезону человек в тени. Характеристика душности погоды. При расчете учитывается влияние влажности воздуха и скорости ветра на теплоощущения человека.
Tes - Эффективная температура на солнце - температура, которую ощущает человек, с поправкой на солнечный нагрев. Характеристика знойности погоды. Зависит от высоты солнца над горизонтом, облачности и скорости ветра. Ночью, в пасмурную погоду, а также при ветре 12 м/с и более поправка равна нулю.
P - Атмосферное давление - приведенное к уровню моря атмосферное давление.
Po - Атмосферное давление - измеренное на уровне метеостанции атмосферное давление.
Tmin - Минимальная температура - минимум температуры воздуха на высоте 2 м над землей.
Tmax - Максимальная температура - максимум температуры воздуха на высоте 2 м над землей.
R - Количество осадков - Количество выпавших осадков за период времени, мм. При наведении курсора мыши на число - период времени, за который выпало указанное количество осадков.
R24 - Количество осадков - Количество выпавших осадков за 24 часа, мм.
S - Снежный покров - Высота снежного покрова, см. При наведении курсора мыши на число - состояние снежного покрова и степень покрытия местности в баллах.